QPF
0.00 0.00 0.00 0.00 0.00 0.00 0.00 0.00 0.00 0.01 0.01 0.01 0.01 0.01 0.01 0.01 0.00 0.04 0.03 0.05 0.06 0.04 0.00 0.00 0.00 0.00 0.05 0.20 0.19 0.20 0.12 0.01 0.00 0.00 0.01 0.00 0.00 0.00 0.00 0.00 0.00 0.00 0.00 0.00 0.00 0.00 0.00 0.00 0.00 0.00 0.00 0.00 0.00 0.00
0.00 0.00 0.00 0.00 0.00 0.00 0.00 0.00 0.00 0.01 0.01 0.01 0.02 0.02 0.01 0.01 0.01 0.04 0.05 0.04 0.06 0.06 0.01 0.00 0.00 0.00 0.00 0.06 0.11 0.14 0.19 0.02 0.00 0.01 0.02 0.01 0.00 0.00 0.00 0.00 0.00 0.00 0.00 0.00 0.00 0.00 0.00 0.00 0.00 0.00 0.00 0.00 0.00 0.00
0.00 0.00 0.00 0.00 0.00 0.00 0.00 0.00 0.01 0.01 0.03 0.04 0.04 0.03 0.02 0.02 0.02 0.04 0.04 0.05 0.06 0.05 0.02 0.00 0.00 0.00 0.00 0.00 0.03 0.06 0.13 0.15 0.03 0.00 0.00 0.00 0.00 0.00 0.00 0.00 0.00 0.00 0.00 0.00 0.00 0.00 0.00 0.00 0.00 0.00 0.00 0.00 0.00 0.00
0.00 0.00 0.00 0.00 0.00 0.00 0.00 0.01 0.01 0.03 0.04 0.06 0.07 0.05 0.03 0.02 0.02 0.03 0.07 0.06 0.05 0.05 0.03 0.00 0.00 0.00 0.00 0.00 0.00 0.01 0.07 0.07 0.01 0.00 0.00 0.00 0.00 0.00 0.00 0.00 0.00 0.00 0.00 0.00 0.00 0.00 0.00 0.00 0.00 0.00 0.00 0.00 0.00 0.00
0.00 0.00 0.00 0.00 0.00 0.00 0.00 0.01 0.02 0.05 0.04 0.06 0.11 0.07 0.03 0.02 0.02 0.06 0.09 0.05 0.04 0.02 0.04 0.01 0.00 0.00 0.00 0.00 0.00 0.02 0.03 0.04 0.03 0.01 0.00 0.00 0.00 0.00 0.00 0.00 0.00 0.00 0.00 0.00 0.00 0.00 0.00 0.00 0.00 0.00 0.00 0.00 0.00 0.00
0.00 0.00 0.00 0.00 0.00 0.00 0.01 0.02 0.03 0.05 0.04 0.04 0.07 0.05 0.04 0.03 0.03 0.10 0.14 0.08 0.04 0.03 0.06 0.02 0.00 0.00 0.00 0.00 0.00 0.02 0.06 0.04 0.04 0.02 0.00 0.00 0.00 0.00 0.00 0.00 0.00 0.00 0.00 0.00 0.00 0.00 0.00 0.00 0.00 0.00 0.00 0.00 0.00 0.00
0.00 0.00 0.00 0.00 0.00 0.00 0.02 0.04 0.03 0.03 0.05 0.05 0.02 0.03 0.05 0.06 0.06 0.11 0.13 0.05 0.01 0.05 0.10 0.03 0.00 0.00 0.00 0.00 0.00 0.01 0.06 0.09 0.05 0.04 0.00 0.00 0.00 0.00 0.00 0.00 0.00 0.00 0.00 0.00 0.00 0.00 0.00 0.00 0.00 0.00 0.00 0.00 0.00 0.00
0.00 0.00 0.00 0.00 0.00 0.00 0.02 0.06 0.03 0.03 0.08 0.06 0.01 0.02 0.04 0.09 0.13 0.08 0.02 0.00 0.00 0.02 0.04 0.03 0.00 0.00 0.01 0.02 0.02 0.01 0.05 0.10 0.07 0.01 0.00 0.00 0.00 0.00 0.00 0.00 0.00 0.00 0.00 0.00 0.00 0.00 0.00 0.00 0.00 0.00 0.00 0.00 0.00 0.00
0.00 0.00 0.00 0.00 0.00 0.00 0.01 0.05 0.04 0.06 0.12 0.06 0.01 0.03 0.18 0.32 0.25 0.07 0.01 0.00 0.01 0.03 0.04 0.02 0.00 0.01 0.03 0.02 0.02 0.01 0.01 0.08 0.07 0.01 0.00 0.00 0.00 0.00 0.00 0.00 0.00 0.00 0.00 0.00 0.00 0.00 0.00 0.00 0.00 0.00 0.00 0.00 0.00 0.00
0.00 0.01 0.01 0.01 0.00 0.00 0.02 0.02 0.05 0.08 0.13 0.07 0.19 0.32 0.39 0.23 0.02 0.05 0.16 0.16 0.09 0.04 0.04 0.01 0.00 0.01 0.03 0.03 0.04 0.03 0.01 0.01 0.01 0.01 0.00 0.00 0.00 0.00 0.00 0.00 0.00 0.00 0.00 0.00 0.00 0.00 0.00 0.00 0.00 0.00 0.00 0.00 0.00 0.00
0.01 0.01 0.01 0.01 0.00 0.00 0.01 0.01 0.04 0.09 0.19 0.21 0.35 0.22 0.08 0.04 0.02 0.10 0.20 0.17 0.09 0.02 0.01 0.00 0.00 0.00 0.02 0.03 0.03 0.04 0.02 0.01 0.01 0.00 0.00 0.00 0.00 0.00 0.00 0.00 0.00 0.00 0.00 0.00 0.00 0.00 0.00 0.00 0.00 0.00 0.00 0.00 0.00 0.00
0.00 0.01 0.01 0.01 0.01 0.00 0.00 0.00 0.03 0.13 0.32 0.16 0.10 0.18 0.09 0.12 0.13 0.13 0.09 0.04 0.01 0.00 0.00 0.00 0.00 0.00 0.02 0.08 0.03 0.03 0.01 0.00 0.00 0.00 0.00 0.00 0.00 0.00 0.00 0.00 0.00 0.00 0.00 0.00 0.00 0.00 0.00 0.00 0.00 0.00 0.00 0.00 0.00 0.00
0.01 0.01 0.01 0.02 0.01 0.00 0.00 0.00 0.02 0.12 0.12 0.12 0.10 0.36 0.08 0.13 0.09 0.03 0.03 0.01 0.00 0.00 0.00 0.00 0.00 0.00 0.01 0.13 0.08 0.03 0.01 0.00 0.00 0.00 0.00 0.00 0.00 0.00 0.00 0.00 0.00 0.00 0.00 0.00 0.00 0.00 0.00 0.00 0.00 0.00 0.00 0.00 0.00 0.00
0.00 0.03 0.03 0.04 0.01 0.00 0.00 0.00 0.05 0.10 0.08 0.29 0.16 0.19 0.03 0.01 0.01 0.00 0.00 0.00 0.00 0.00 0.00 0.00 0.00 0.00 0.01 0.07 0.13 0.01 0.00 0.00 0.00 0.00 0.00 0.00 0.00 0.00 0.00 0.00 0.00 0.00 0.00 0.00 0.00 0.00 0.00 0.00 0.00 0.00 0.00 0.00 0.00 0.00
0.03 0.01 0.03 0.04 0.03 0.00 0.00 0.01 0.11 0.06 0.09 0.25 0.08 0.02 0.00 0.00 0.00 0.00 0.00 0.00 0.00 0.00 0.00 0.00 0.00 0.01 0.00 0.02 0.08 0.04 0.00 0.00 0.00 0.00 0.00 0.00 0.00 0.00 0.00 0.00 0.00 0.00 0.00 0.00 0.00 0.00 0.00 0.00 0.00 0.00 0.00 0.00 0.00 0.00
0.05 0.08 0.03 0.02 0.05 0.04 0.02 0.04 0.17 0.14 0.04 0.10 0.05 0.00 0.00 0.01 0.01 0.00 0.00 0.00 0.00 0.00 0.00 0.00 0.01 0.01 0.00 0.00 0.01 0.01 0.00 0.00 0.00 0.00 0.00 0.00 0.00 0.00 0.00 0.00 0.00 0.00 0.00 0.00 0.00 0.00 0.00 0.00 0.00 0.00 0.00 0.00 0.00 0.00
0.09 0.12 0.05 0.01 0.03 0.05 0.07 0.16 0.40 0.61 0.24 0.04 0.01 0.00 0.00 0.01 0.01 0.00 0.00 0.00 0.00 0.00 0.00 0.00 0.01 0.00 0.00 0.00 0.00 0.00 0.00 0.00 0.00 0.00 0.00 0.00 0.00 0.00 0.00 0.00 0.00 0.00 0.00 0.00 0.00 0.00 0.00 0.00 0.00 0.00 0.00 0.00 0.00 0.00
0.05 0.03 0.01 0.00 0.05 0.16 0.26 0.50 0.53 0.46 0.33 0.03 0.00 0.00 0.00 0.00 0.01 0.00 0.00 0.00 0.00 0.00 0.00 0.00 0.00 0.00 0.00 0.00 0.00 0.00 0.00 0.00 0.00 0.00 0.00 0.00 0.00 0.00 0.00 0.00 0.00 0.00 0.00 0.00 0.00 0.00 0.00 0.00 0.00 0.00 0.00 0.00 0.00 0.00
0.01 0.01 0.02 0.02 0.18 0.66 0.82 0.65 0.32 0.13 0.03 0.00 0.01 0.01 0.01 0.01 0.01 0.00 0.00 0.00 0.00 0.00 0.00 0.00 0.00 0.00 0.00 0.00 0.00 0.00 0.00 0.00 0.00 0.00 0.00 0.00 0.00 0.00 0.00 0.00 0.00 0.00 0.00 0.00 0.00 0.00 0.00 0.00 0.00 0.00 0.00 0.00 0.00 0.00
0.11 0.12 0.16 0.21 0.35 0.47 0.35 0.29 0.10 0.04 0.02 0.01 0.01 0.02 0.02 0.02 0.00 0.00 0.00 0.00 0.00 0.00 0.00 0.00 0.00 0.00 0.00 0.00 0.00 0.00 0.00 0.00 0.00 0.00 0.00 0.00 0.00 0.00 0.00 0.00 0.00 0.00 0.00 0.00 0.00 0.00 0.00 0.00 0.00 0.00 0.00 0.00 0.00 0.00
0.22 0.28 0.34 0.29 0.22 0.17 0.10 0.07 0.02 0.01 0.01 0.03 0.02 0.02 0.02 0.03 0.04 0.02 0.01 0.00 0.00 0.00 0.00 0.00 0.00 0.00 0.00 0.00 0.00 0.00 0.00 0.00 0.00 0.00 0.00 0.00 0.00 0.00 0.00 0.00 0.00 0.00 0.00 0.00 0.00 0.00 0.00 0.00 0.00 0.00 0.00 0.00 0.00 0.00
0.36 0.35 0.38 0.21 0.15 0.08 0.02 0.00 0.00 0.00 0.01 0.01 0.02 0.01 0.01 0.02 0.03 0.04 0.04 0.03 0.00 0.00 0.00 0.00 0.00 0.00 0.00 0.00 0.00 0.00 0.00 0.00 0.00 0.00 0.00 0.00 0.00 0.00 0.00 0.00 0.00 0.00 0.00 0.00 0.00 0.00 0.00 0.00 0.00 0.00 0.00 0.00 0.00 0.00
0.13 0.12 0.12 0.05 0.02 0.01 0.01 0.00 0.00 0.01 0.01 0.01 0.02 0.01 0.01 0.01 0.01 0.02 0.04 0.01 0.00 0.00 0.00 0.00 0.00 0.00 0.00 0.00 0.00 0.00 0.00 0.00 0.00 0.00 0.00 0.00 0.00 0.00 0.00 0.00 0.00 0.00 0.00 0.00 0.00 0.00 0.00 0.00 0.00 0.00 0.00 0.00 0.00 0.00
0.01 0.01 0.01 0.00 0.00 0.01 0.04 0.01 0.00 0.00 0.00 0.01 0.10 0.09 0.02 0.01 0.02 0.02 0.03 0.00 0.00 0.00 0.00 0.00 0.00 0.00 0.00 0.00 0.00 0.00 0.00 0.00 0.00 0.00 0.00 0.00 0.00 0.00 0.00 0.00 0.00 0.00 0.00 0.00 0.00 0.00 0.00 0.00 0.00 0.00 0.00 0.00 0.00 0.00
0.01 0.00 0.00 0.00 0.00 0.02 0.10 0.11 0.05 0.01 0.00 0.01 0.05 0.12 0.12 0.05 0.04 0.04 0.03 0.01 0.00 0.00 0.00 0.01 0.04 0.07 0.02 0.00 0.00 0.00 0.00 0.00 0.00 0.00 0.00 0.00 0.00 0.00 0.00 0.00 0.00 0.00 0.00 0.00 0.00 0.00 0.00 0.00 0.00 0.00 0.00 0.00 0.00 0.00
0.00 0.00 0.00 0.00 0.00 0.01 0.03 0.08 0.12 0.13 0.08 0.07 0.08 0.08 0.10 0.12 0.09 0.07 0.05 0.01 0.01 0.02 0.02 0.01 0.05 0.15 0.11 0.04 0.01 0.00 0.00 0.00 0.00 0.00 0.00 0.00 0.00 0.00 0.00 0.00 0.00 0.00 0.00 0.00 0.00 0.00 0.00 0.00 0.00 0.00 0.00 0.00 0.00 0.00
0.00 0.00 0.00 0.00 0.00 0.00 0.01 0.02 0.04 0.17 0.25 0.17 0.09 0.11 0.18 0.18 0.11 0.08 0.07 0.06 0.07 0.07 0.06 0.03 0.04 0.13 0.18 0.10 0.04 0.01 0.00 0.00 0.00 0.00 0.00 0.00 0.00 0.00 0.00 0.00 0.00 0.00 0.00 0.00 0.00 0.00 0.00 0.00 0.00 0.00 0.00 0.00 0.00 0.00
0.00 0.00 0.00 0.00 0.01 0.02 0.04 0.04 0.08 0.18 0.22 0.20 0.14 0.13 0.12 0.07 0.05 0.08 0.13 0.15 0.14 0.12 0.09 0.06 0.03 0.04 0.07 0.06 0.03 0.01 0.00 0.00 0.00 0.00 0.00 0.00 0.00 0.00 0.00 0.00 0.00 0.00 0.00 0.00 0.00 0.00 0.00 0.00 0.00 0.00 0.00 0.00 0.00 0.00
0.00 0.00 0.00 0.02 0.06 0.08 0.08 0.09 0.07 0.12 0.18 0.12 0.09 0.06 0.04 0.05 0.11 0.16 0.21 0.20 0.16 0.10 0.06 0.04 0.03 0.02 0.02 0.01 0.00 0.00 0.00 0.00 0.00 0.00 0.00 0.00 0.00 0.00 0.00 0.00 0.00 0.00 0.00 0.00 0.00 0.00 0.00 0.00 0.00 0.00 0.00 0.00 0.00 0.00
0.00 0.00 0.00 0.01 0.04 0.07 0.10 0.11 0.14 0.16 0.25 0.20 0.14 0.13 0.12 0.16 0.23 0.23 0.23 0.16 0.08 0.03 0.01 0.01 0.01 0.01 0.01 0.01 0.00 0.00 0.00 0.00 0.00 0.00 0.00 0.00 0.00 0.00 0.00 0.00 0.00 0.00 0.00 0.00 0.00 0.00 0.00 0.00 0.00 0.00 0.00 0.00 0.00 0.00
0.00 0.01 0.03 0.05 0.06 0.07 0.10 0.13 0.17 0.19 0.19 0.18 0.24 0.18 0.16 0.20 0.23 0.22 0.17 0.10 0.04 0.00 0.00 0.00 0.00 0.00 0.01 0.01 0.00 0.00 0.00 0.00 0.00 0.00 0.00 0.00 0.00 0.00 0.00 0.00 0.00 0.00 0.00 0.00 0.00 0.00 0.00 0.00 0.00 0.00 0.00 0.00 0.00 0.00
0.02 0.04 0.05 0.06 0.08 0.09 0.08 0.10 0.11 0.14 0.16 0.13 0.14 0.14 0.11 0.07 0.10 0.16 0.22 0.19 0.10 0.04 0.03 0.02 0.02 0.01 0.00 0.00 0.00 0.00 0.00 0.00 0.00 0.00 0.00 0.00 0.00 0.00 0.00 0.00 0.00 0.00 0.00 0.00 0.00 0.00 0.00 0.00 0.00 0.00 0.00 0.00 0.00 0.00
0.01 0.03 0.04 0.05 0.05 0.04 0.06 0.07 0.07 0.10 0.10 0.10 0.11 0.09 0.06 0.04 0.05 0.08 0.10 0.17 0.20 0.18 0.13 0.10 0.06 0.03 0.01 0.00 0.00 0.00 0.00 0.00 0.00 0.00 0.00 0.00 0.00 0.00 0.00 0.00 0.00 0.00 0.00 0.00 0.00 0.00 0.00 0.00 0.00 0.00 0.00 0.00 0.00 0.00
MSLP
1020.84 1021.32 1021.44 1021.62 1021.78 1021.97 1022.09 1022.09 1022.14 1022.14 1022.19 1022.23 1022.26 1022.40 1022.58 1022.80 1023.14 1023.57 1023.02 1023.29 1023.35 1022.62 1021.17 1020.30 1019.63 1019.66 1020.87 1021.18 1021.39 1020.18 1018.40 1016.57 1015.52 1013.50 1011.74 1011.09 1010.15 1010.79 1010.73 1010.98 1011.77 1012.17 1012.86 1013.11 1013.19 1012.67 1011.67 1010.94 1011.62 1011.29 1011.17 1011.11 1010.79 1010.43
1019.96 1020.29 1020.51 1020.71 1020.87 1021.03 1021.08 1021.02 1021.07 1021.07 1021.01 1020.90 1020.99 1021.12 1021.34 1021.62 1022.07 1022.79 1022.49 1022.25 1022.79 1022.56 1020.64 1019.97 1019.34 1019.67 1019.90 1020.73 1021.82 1021.59 1019.88 1017.04 1015.79 1014.26 1012.68 1011.30 1010.49 1010.85 1010.59 1011.07 1011.89 1011.82 1011.37 1011.59 1011.52 1011.14 1011.05 1011.08 1010.95 1011.24 1011.37 1011.12 1011.06 1010.69
1019.08 1019.30 1019.51 1019.75 1019.89 1020.00 1019.97 1019.94 1019.91 1019.82 1019.73 1019.60 1019.55 1019.68 1019.96 1020.32 1020.84 1021.57 1021.60 1021.52 1022.19 1022.33 1021.15 1019.88 1018.70 1018.82 1018.74 1019.76 1020.62 1021.56 1019.71 1018.61 1016.72 1015.83 1013.90 1011.66 1010.18 1010.02 1010.07 1010.21 1011.02 1011.33 1011.10 1010.99 1010.95 1010.13 1010.53 1010.83 1010.97 1011.21 1011.42 1011.43 1011.36 1011.45
1018.02 1018.28 1018.55 1018.71 1018.83 1018.93 1018.82 1018.75 1018.68 1018.53 1018.32 1018.13 1018.04 1018.01 1018.16 1018.64 1019.45 1020.40 1020.62 1020.96 1021.51 1021.59 1020.60 1017.90 1017.27 1017.27 1017.51 1019.03 1020.17 1020.10 1019.89 1019.83 1019.04 1016.66 1014.11 1011.78 1010.58 1010.77 1009.62 1009.49 1009.56 1009.98 1010.52 1010.23 1010.00 1009.78 1010.19 1010.23 1010.28 1010.61 1011.16 1011.42 1011.58 1011.68
1016.94 1017.31 1017.52 1017.67 1017.79 1017.73 1017.65 1017.57 1017.40 1017.19 1016.94 1016.72 1016.40 1016.25 1016.23 1017.04 1018.29 1019.35 1020.04 1020.16 1020.57 1020.37 1018.49 1017.39 1016.60 1015.90 1016.44 1017.80 1018.58 1019.24 1019.68 1019.91 1018.86 1016.21 1013.99 1012.34 1011.35 1010.98 1010.18 1009.45 1008.79 1009.39 1009.13 1009.20 1008.67 1008.89 1009.16 1009.27 1009.42 1010.08 1010.50 1011.07 1011.44 1011.80
1015.87 1016.24 1016.42 1016.55 1016.60 1016.56 1016.51 1016.36 1016.12 1015.97 1015.84 1015.46 1015.07 1014.74 1015.10 1016.10 1017.54 1018.95 1019.55 1019.87 1019.71 1020.08 1019.85 1018.00 1015.68 1015.39 1015.48 1016.36 1017.82 1018.71 1019.45 1019.48 1018.65 1016.06 1013.64 1012.11 1011.41 1011.14 1009.54 1008.43 1007.96 1008.44 1008.39 1008.29 1008.49 1009.02 1009.27 1009.61 1009.71 1009.72 1009.96 1010.41 1011.09 1011.83
1014.74 1015.08 1015.27 1015.40 1015.42 1015.39 1015.32 1015.16 1015.02 1014.94 1014.73 1014.45 1014.12 1014.07 1014.70 1015.57 1016.66 1017.51 1017.87 1017.81 1018.90 1020.17 1019.86 1018.21 1015.34 1013.82 1014.61 1015.61 1017.00 1017.95 1018.58 1018.61 1017.87 1015.90 1013.54 1011.83 1010.89 1010.85 1009.69 1008.37 1007.49 1007.82 1008.24 1008.35 1008.78 1009.15 1009.27 1009.25 1009.07 1009.39 1009.76 1010.01 1010.94 1011.49
1013.63 1013.94 1014.14 1014.22 1014.25 1014.23 1014.14 1014.06 1014.02 1013.85 1013.74 1013.56 1013.63 1014.07 1014.87 1015.84 1017.03 1017.69 1016.90 1017.34 1018.15 1019.38 1019.29 1017.46 1014.99 1014.22 1014.09 1014.67 1015.51 1016.36 1017.26 1017.64 1016.66 1015.08 1012.95 1011.46 1011.02 1010.58 1009.13 1008.29 1007.85 1007.57 1007.94 1008.20 1008.51 1008.95 1008.93 1008.95 1009.18 1009.27 1009.77 1009.97 1010.71 1011.23
1012.44 1012.75 1012.92 1013.01 1013.07 1013.06 1013.00 1013.06 1012.99 1012.96 1012.85 1013.11 1013.59 1014.38 1015.37 1016.11 1016.60 1016.57 1017.17 1017.58 1017.08 1017.19 1017.01 1015.56 1014.41 1013.21 1013.42 1013.41 1013.91 1014.79 1015.19 1015.93 1015.75 1014.13 1012.32 1011.05 1010.01 1008.76 1008.08 1007.70 1007.35 1007.25 1007.31 1007.52 1007.90 1008.29 1008.57 1009.01 1008.85 1009.02 1009.52 1009.82 1010.14 1010.83
1011.16 1011.45 1011.66 1011.79 1011.86 1011.90 1011.93 1012.03 1012.04 1012.07 1012.30 1013.01 1013.83 1014.45 1015.34 1015.72 1016.00 1016.87 1018.10 1017.78 1017.46 1016.71 1015.49 1013.87 1013.35 1012.79 1013.83 1012.94 1013.61 1013.82 1013.65 1013.56 1013.87 1013.05 1011.42 1009.70 1008.20 1007.54 1007.29 1007.00 1006.84 1006.98 1007.22 1007.39 1007.49 1007.75 1008.19 1008.28 1008.44 1008.71 1008.96 1009.53 1009.83 1010.47
1009.76 1010.04 1010.28 1010.51 1010.66 1010.74 1010.87 1011.00 1011.23 1011.59 1012.22 1012.51 1013.41 1014.33 1014.52 1014.83 1015.25 1016.48 1016.66 1016.44 1015.61 1014.94 1013.52 1012.67 1012.34 1012.22 1013.93 1014.12 1013.34 1013.25 1012.93 1012.65 1011.74 1010.12 1009.64 1007.44 1006.04 1005.82 1006.42 1006.19 1006.39 1006.73 1006.77 1006.86 1006.99 1007.27 1007.75 1007.82 1007.92 1008.30 1008.73 1009.32 1009.74 1010.29
1008.24 1008.56 1008.88 1009.16 1009.36 1009.52 1009.81 1010.15 1010.62 1011.11 1011.31 1011.81 1012.84 1013.79 1014.13 1014.34 1014.59 1014.69 1014.45 1014.07 1013.17 1011.80 1010.96 1011.08 1011.38 1011.89 1014.14 1014.72 1013.86 1013.10 1011.69 1011.27 1009.42 1008.12 1007.67 1005.13 1004.24 1004.18 1004.66 1004.78 1005.44 1005.80 1006.06 1006.35 1006.54 1006.70 1007.11 1007.38 1007.67 1008.01 1008.53 1009.14 1009.71 1010.23
1006.73 1007.06 1007.35 1007.69 1007.95 1008.28 1008.79 1009.35 1009.99 1010.65 1011.03 1012.08 1012.27 1012.96 1013.00 1013.26 1012.48 1011.26 1010.13 1009.98 1009.72 1009.11 1009.10 1009.89 1010.42 1011.22 1013.66 1014.78 1014.20 1012.78 1011.16 1009.80 1008.28 1007.45 1005.55 1003.50 1003.05 1002.96 1003.24 1003.75 1004.33 1004.46 1004.90 1005.37 1005.78 1006.05 1006.57 1006.91 1007.48 1007.89 1008.33 1008.91 1009.69 1010.45
1005.09 1005.48 1005.83 1006.26 1006.76 1007.16 1007.90 1008.78 1009.67 1010.11 1010.61 1011.68 1011.20 1011.53 1010.77 1009.44 1008.14 1006.78 1006.61 1007.32 1008.22 1008.47 1008.37 1008.83 1009.58 1010.46 1012.11 1013.97 1013.35 1011.35 1009.17 1007.98 1006.97 1005.02 1002.80 1002.79 1002.65 1002.67 1002.76 1002.94 1003.27 1003.31 1003.63 1004.06 1004.51 1005.19 1005.69 1006.40 1006.95 1007.52 1008.10 1008.67 1009.50 1010.44
1003.32 1003.80 1004.34 1004.91 1005.31 1006.11 1007.18 1008.28 1009.12 1009.26 1009.83 1010.19 1009.70 1008.15 1007.02 1005.89 1005.14 1005.21 1005.38 1005.83 1006.77 1007.22 1007.53 1008.09 1009.15 1009.72 1010.77 1011.83 1011.39 1010.12 1008.24 1006.44 1004.14 1002.23 1001.61 1001.48 1001.83 1002.02 1001.94 1002.15 1002.35 1002.58 1002.89 1003.18 1003.71 1004.40 1005.02 1005.69 1006.24 1007.14 1007.89 1008.54 1009.21 1010.69
1001.65 1002.60 1002.75 1003.34 1003.95 1005.22 1006.61 1008.02 1008.83 1008.85 1008.48 1008.58 1007.81 1005.71 1004.46 1004.88 1004.70 1004.39 1004.38 1004.87 1005.81 1006.44 1006.67 1007.53 1008.22 1008.49 1008.63 1008.86 1008.85 1007.90 1006.09 1003.71 1002.32 1001.89 1001.64 1001.52 1001.61 1001.57 1001.53 1001.58 1001.80 1002.21 1002.39 1002.69 1003.28 1003.70 1004.25 1005.09 1005.63 1006.39 1007.61 1008.29 1009.29 1010.52
999.88 999.75 1000.48 1001.96 1003.15 1004.74 1006.21 1007.29 1007.90 1007.60 1007.56 1006.24 1004.54 1004.44 1003.80 1003.90 1004.54 1004.19 1003.86 1004.37 1005.31 1005.43 1005.39 1006.18 1006.32 1006.21 1006.11 1005.84 1005.56 1004.57 1003.40 1002.20 1001.59 1001.22 1002.02 1002.22 1002.22 1001.98 1001.87 1001.79 1002.01 1002.49 1002.65 1002.76 1003.10 1003.46 1004.00 1004.77 1005.68 1006.15 1006.92 1007.75 1008.86 1010.03
997.58 998.50 999.25 1000.88 1002.56 1004.39 1005.54 1006.34 1006.86 1006.46 1005.71 1003.98 1003.36 1003.07 1003.36 1003.19 1003.88 1003.87 1003.64 1004.10 1004.60 1004.39 1004.91 1004.95 1004.84 1004.52 1003.92 1003.47 1003.13 1003.23 1002.72 1002.55 1001.81 1001.98 1002.36 1002.69 1002.63 1002.35 1002.18 1002.11 1002.21 1002.54 1002.65 1002.68 1002.95 1003.52 1004.16 1004.82 1005.19 1005.50 1006.33 1007.44 1008.49 1009.55
996.23 997.35 998.69 999.99 1001.55 1003.05 1004.04 1005.49 1005.72 1004.70 1003.02 1002.37 1002.51 1002.70 1002.64 1002.90 1003.32 1003.57 1003.35 1003.52 1004.03 1004.02 1004.41 1004.29 1003.75 1002.44 1002.26 1002.29 1002.03 1001.92 1001.83 1001.85 1001.98 1001.75 1001.99 1002.78 1002.82 1002.52 1002.39 1002.35 1002.43 1002.58 1002.57 1002.86 1003.27 1003.70 1004.27 1004.57 1004.70 1005.22 1005.95 1007.14 1007.97 1009.14
995.39 996.34 997.60 999.41 1000.72 1002.07 1002.65 1003.44 1003.21 1002.80 1001.43 1000.75 1001.37 1001.55 1001.70 1002.36 1003.02 1003.00 1002.96 1003.09 1003.65 1003.73 1002.92 1001.91 1001.79 1001.99 1001.81 1001.79 1001.94 1002.04 1001.98 1001.89 1001.87 1001.79 1001.92 1002.22 1002.35 1002.56 1002.64 1002.82 1002.67 1002.87 1003.05 1003.49 1003.80 1004.10 1004.32 1004.55 1004.80 1005.13 1006.02 1007.10 1008.00 1008.82
994.26 994.91 996.97 998.37 999.74 1000.31 1000.69 1000.65 1001.20 1001.12 1000.77 1000.25 1000.58 1001.16 1001.42 1001.82 1002.17 1002.46 1002.66 1002.79 1002.73 1001.24 1000.91 1001.03 1001.55 1001.86 1001.99 1001.85 1001.94 1002.43 1002.67 1002.75 1002.68 1002.64 1002.33 1002.19 1002.31 1002.55 1002.69 1002.93 1002.78 1003.02 1003.40 1003.78 1004.06 1004.31 1004.69 1005.05 1005.39 1005.84 1006.69 1007.40 1008.26 1008.91
992.36 994.19 995.96 997.84 998.42 999.38 999.85 1000.14 999.64 1000.44 1000.97 1000.35 1000.75 1001.04 1001.23 1001.55 1001.95 1002.27 1002.60 1001.99 1000.89 1000.40 1000.63 1001.09 1001.39 1001.41 1001.54 1001.66 1001.75 1001.72 1002.37 1002.92 1003.16 1002.98 1002.82 1002.75 1002.40 1002.34 1002.13 1002.79 1002.97 1003.29 1003.77 1004.22 1004.37 1004.91 1005.29 1005.65 1006.07 1006.71 1007.61 1008.39 1008.89 1009.33
992.99 993.78 995.39 996.45 997.64 998.49 1000.26 1000.08 999.87 1000.50 1000.82 1001.21 1001.26 1001.32 1001.32 1001.49 1001.52 1001.95 1001.68 1000.93 1000.60 1000.69 1000.92 1001.03 1001.39 1001.49 1001.30 1001.90 1002.37 1002.58 1002.86 1002.99 1002.78 1002.61 1002.35 1002.06 1001.86 1002.12 1002.24 1002.77 1003.06 1003.50 1004.00 1004.34 1004.77 1005.32 1005.81 1006.28 1006.95 1007.70 1008.34 1008.86 1009.47 1010.25
993.54 994.78 995.85 996.54 997.37 998.95 999.76 999.92 999.74 999.83 1000.65 1001.11 1001.48 1001.47 1001.85 1002.42 1002.63 1002.20 1001.08 1000.56 1000.55 1000.69 1000.67 1000.81 1001.33 1001.59 1001.54 1002.39 1002.58 1002.62 1002.82 1002.73 1002.58 1002.25 1002.11 1001.86 1002.09 1002.38 1002.75 1003.05 1003.30 1003.81 1004.26 1004.61 1005.12 1005.88 1006.50 1007.09 1007.69 1008.28 1009.09 1009.74 1010.51 1010.95
994.17 996.23 996.60 997.55 997.96 998.51 999.29 999.89 999.90 1000.04 1000.37 1000.62 1001.02 1001.64 1002.14 1002.85 1002.57 1001.94 1000.69 1000.48 1000.58 1000.38 1000.64 1000.93 1001.12 1001.30 1001.29 1001.48 1002.46 1002.61 1002.67 1002.76 1002.09 1002.24 1002.39 1002.41 1002.29 1002.92 1003.18 1003.53 1003.82 1004.39 1004.78 1005.03 1005.94 1006.63 1007.42 1007.89 1008.48 1009.11 1009.84 1010.35 1010.83 1011.46
996.20 997.47 997.44 997.82 998.51 998.66 999.19 999.67 1000.01 1000.04 1000.11 1000.39 1000.46 1000.36 1001.46 1002.49 1002.00 1000.79 1000.25 1000.82 1000.70 1000.39 1000.23 1000.36 1000.68 1001.19 1001.63 1002.26 1002.52 1002.25 1002.41 1002.74 1002.52 1002.45 1002.51 1002.58 1002.79 1002.75 1002.53 1003.23 1004.04 1004.89 1005.06 1005.51 1006.31 1007.01 1007.73 1008.39 1008.92 1009.48 1010.23 1010.84 1011.20 1011.62
997.27 998.28 998.66 998.82 998.78 999.18 999.90 1000.09 1000.24 1000.31 1000.35 1000.33 1000.24 1001.17 1001.99 1002.34 1001.29 1001.18 1001.36 1001.69 1001.43 1000.97 1000.54 1000.39 1000.53 1000.92 1001.50 1002.15 1002.28 1002.85 1003.27 1003.28 1002.60 1002.82 1003.11 1003.18 1003.14 1003.00 1003.15 1003.35 1003.86 1004.42 1005.06 1005.85 1006.53 1006.82 1007.39 1008.40 1009.12 1009.75 1010.49 1011.06 1011.35 1011.63
998.24 998.58 998.74 999.43 999.60 999.88 1000.01 1000.07 1000.18 999.93 999.72 999.91 1000.20 1000.57 1000.64 1001.18 1002.49 1003.01 1002.69 1002.58 1002.10 1001.36 1001.06 1001.20 1001.04 1001.30 1001.89 1002.66 1003.63 1004.31 1004.49 1003.86 1003.23 1003.59 1004.16 1004.21 1004.34 1004.34 1004.28 1004.43 1004.67 1005.16 1005.68 1006.39 1006.83 1007.21 1007.82 1008.45 1009.18 1009.93 1010.55 1011.01 1011.47 1011.86
998.71 999.14 999.20 999.49 999.84 1000.06 1000.41 1000.69 1000.42 1000.31 1000.43 1000.23 1000.34 1001.22 1002.74 1004.19 1005.15 1004.75 1003.97 1003.18 1002.02 1001.80 1001.75 1001.79 1002.27 1002.65 1003.56 1004.49 1003.98 1004.24 1003.95 1003.35 1003.79 1004.31 1004.38 1004.84 1005.19 1005.66 1005.59 1005.68 1005.93 1006.23 1006.67 1007.15 1007.65 1007.90 1008.40 1008.97 1009.56 1010.04 1010.65 1011.14 1011.67 1012.20
999.38 999.35 999.34 999.97 1000.31 1000.64 1001.00 1001.12 1000.75 1000.56 1000.73 1001.28 1002.11 1003.33 1004.36 1005.53 1006.28 1006.17 1005.22 1004.00 1003.25 1003.19 1003.24 1003.39 1003.54 1003.54 1004.13 1004.35 1005.06 1005.49 1005.43 1005.21 1004.78 1004.50 1004.82 1005.65 1006.22 1006.58 1006.70 1007.00 1007.05 1007.09 1007.24 1007.54 1008.21 1008.95 1009.36 1009.69 1010.13 1010.57 1011.13 1011.69 1012.13 1012.53
999.96 999.72 999.97 1000.25 1000.71 1001.32 1001.53 1001.68 1001.64 1001.55 1001.72 1002.20 1003.07 1003.43 1003.94 1004.96 1005.92 1006.70 1006.56 1005.73 1004.92 1004.79 1004.54 1004.49 1004.85 1005.30 1005.53 1005.92 1005.91 1005.95 1006.32 1006.47 1006.04 1005.77 1005.95 1006.40 1006.94 1007.25 1007.34 1007.38 1007.48 1007.69 1007.92 1008.23 1008.72 1009.21 1009.73 1010.20 1010.66 1011.17 1011.60 1011.94 1012.34 1012.69
1000.22 1000.05 1000.00 1000.60 1001.38 1001.78 1001.74 1001.82 1002.04 1002.27 1002.80 1003.13 1003.61 1004.01 1004.65 1005.36 1006.78 1007.81 1008.31 1007.98 1007.66 1007.10 1006.82 1006.52 1006.28 1006.85 1007.12 1007.11 1006.99 1007.11 1007.33 1007.38 1007.12 1007.00 1006.98 1007.20 1007.55 1007.92 1008.18 1008.35 1008.40 1008.39 1008.57 1008.90 1009.44 1009.99 1010.42 1010.78 1011.15 1011.50 1011.87 1012.20 1012.47 1012.65
1000.88 1000.72 1000.57 1001.00 1001.45 1001.68 1001.90 1001.78 1002.10 1002.63 1003.14 1003.75 1004.86 1005.63 1006.31 1007.10 1008.86 1010.21 1010.28 1010.09 1009.79 1009.38 1008.82 1008.22 1008.09 1008.10 1008.09 1008.01 1007.96 1008.00 1008.05 1008.13 1008.16 1008.12 1008.20 1008.32 1008.55 1008.69 1008.75 1008.90 1009.08 1009.29 1009.56 1009.94 1010.28 1010.54 1010.87 1011.25 1011.60 1011.93 1012.17 1012.34 1012.52 1012.66
Thickness
5352 5347 5347 5345 5342 5339 5337 5335 5333 5333 5332 5333 5335 5336 5337 5339 5342 5343 5353 5351 5356 5367 5387 5402 5415 5423 5419 5425 5434 5451 5481 5502 5513 5533 5550 5553 5564 5566 5577 5589 5580 5581 5575 5575 5580 5577 5579 5621 5610 5609 5617 5621 5624 5628
5345 5342 5341 5338 5336 5333 5331 5330 5329 5330 5331 5334 5335 5337 5338 5340 5342 5342 5349 5356 5359 5363 5390 5399 5412 5418 5427 5427 5426 5431 5458 5500 5510 5522 5541 5557 5563 5565 5577 5567 5581 5578 5595 5590 5597 5596 5613 5616 5617 5619 5619 5620 5620 5626
5339 5338 5336 5333 5330 5328 5328 5329 5330 5331 5332 5335 5338 5340 5342 5344 5345 5347 5353 5358 5356 5359 5374 5394 5414 5421 5432 5436 5439 5431 5458 5471 5502 5510 5529 5551 5565 5578 5573 5582 5576 5583 5597 5595 5595 5614 5612 5613 5617 5618 5617 5616 5619 5620
5335 5333 5330 5328 5326 5325 5328 5330 5330 5332 5335 5339 5343 5347 5351 5352 5351 5351 5355 5358 5359 5363 5374 5413 5424 5431 5440 5435 5436 5446 5453 5458 5470 5500 5527 5550 5562 5566 5582 5589 5592 5594 5592 5595 5600 5611 5612 5616 5620 5620 5617 5616 5615 5616
5330 5327 5326 5324 5324 5326 5328 5329 5331 5335 5339 5345 5352 5357 5363 5361 5357 5355 5355 5360 5364 5375 5398 5412 5426 5439 5442 5443 5446 5450 5450 5452 5467 5505 5525 5538 5554 5560 5572 5584 5593 5595 5598 5595 5603 5619 5619 5622 5627 5624 5619 5614 5613 5610
5326 5323 5322 5322 5324 5326 5328 5330 5334 5339 5344 5351 5358 5366 5368 5365 5360 5353 5354 5359 5367 5371 5376 5398 5433 5439 5450 5452 5448 5449 5448 5454 5466 5501 5528 5541 5550 5555 5569 5582 5602 5600 5609 5615 5613 5617 5619 5618 5622 5626 5623 5620 5615 5608
5322 5321 5320 5322 5323 5326 5328 5332 5337 5343 5349 5355 5362 5367 5367 5366 5362 5364 5370 5381 5374 5368 5373 5396 5431 5454 5455 5456 5453 5453 5456 5460 5472 5498 5523 5541 5553 5550 5565 5575 5600 5604 5606 5610 5613 5612 5611 5618 5622 5626 5623 5623 5613 5611
5319 5319 5319 5321 5324 5326 5330 5336 5341 5348 5354 5359 5363 5364 5363 5361 5356 5360 5378 5379 5375 5369 5379 5395 5430 5446 5458 5459 5465 5469 5465 5465 5479 5501 5526 5538 5542 5548 5558 5580 5592 5604 5606 5608 5611 5611 5615 5622 5622 5624 5621 5620 5612 5608
5318 5318 5320 5322 5325 5328 5334 5339 5346 5352 5358 5360 5360 5358 5354 5352 5355 5369 5371 5372 5381 5389 5391 5416 5429 5450 5460 5472 5479 5477 5481 5475 5482 5503 5524 5536 5543 5550 5572 5584 5595 5602 5606 5610 5613 5615 5617 5615 5620 5622 5619 5617 5615 5609
5317 5318 5320 5324 5328 5332 5338 5344 5351 5357 5360 5359 5355 5355 5349 5357 5364 5361 5358 5362 5366 5380 5403 5427 5445 5458 5450 5475 5476 5485 5493 5500 5492 5502 5528 5537 5551 5575 5586 5594 5598 5602 5606 5608 5609 5611 5612 5616 5620 5621 5621 5618 5617 5612
5318 5320 5324 5328 5332 5337 5343 5349 5354 5357 5356 5358 5352 5353 5361 5364 5366 5357 5358 5363 5377 5387 5416 5437 5448 5457 5445 5453 5477 5482 5484 5494 5505 5535 5533 5553 5570 5585 5589 5595 5599 5602 5607 5611 5615 5619 5619 5622 5623 5622 5621 5618 5617 5614
5321 5324 5328 5332 5337 5342 5346 5351 5353 5355 5360 5364 5360 5357 5360 5360 5356 5364 5371 5380 5393 5416 5440 5444 5453 5458 5432 5435 5456 5475 5495 5502 5519 5544 5541 5564 5593 5602 5601 5604 5603 5606 5608 5610 5616 5620 5621 5623 5625 5625 5622 5618 5615 5614
5326 5329 5334 5337 5341 5345 5348 5351 5353 5355 5358 5357 5361 5350 5359 5359 5376 5385 5398 5414 5423 5444 5454 5451 5451 5456 5435 5421 5430 5466 5483 5491 5528 5526 5545 5582 5604 5611 5612 5611 5608 5613 5615 5614 5617 5623 5623 5625 5625 5624 5622 5620 5615 5611
5332 5336 5339 5342 5344 5347 5348 5348 5348 5354 5358 5349 5362 5362 5378 5392 5412 5435 5445 5444 5442 5446 5453 5454 5454 5455 5447 5424 5429 5467 5504 5518 5520 5537 5571 5590 5602 5608 5612 5614 5612 5617 5622 5622 5624 5625 5626 5625 5624 5624 5621 5619 5610 5609
5340 5342 5344 5346 5350 5350 5348 5346 5346 5355 5356 5358 5369 5388 5405 5434 5444 5447 5454 5454 5450 5454 5457 5456 5455 5461 5455 5437 5437 5461 5496 5508 5542 5572 5592 5603 5609 5610 5613 5614 5616 5619 5622 5624 5627 5628 5627 5626 5627 5620 5619 5617 5615 5603
5348 5345 5349 5352 5355 5351 5346 5342 5342 5352 5362 5364 5375 5408 5437 5433 5434 5448 5457 5456 5455 5454 5459 5458 5455 5458 5464 5470 5464 5476 5503 5531 5561 5578 5590 5602 5603 5608 5613 5615 5616 5618 5622 5625 5627 5630 5630 5626 5625 5625 5617 5616 5606 5598
5354 5361 5362 5357 5356 5349 5343 5342 5342 5346 5357 5377 5404 5417 5430 5435 5428 5443 5456 5457 5455 5459 5460 5462 5459 5471 5487 5489 5495 5514 5532 5555 5572 5582 5578 5581 5588 5598 5604 5609 5609 5608 5614 5620 5624 5627 5627 5625 5621 5623 5618 5616 5608 5601
5365 5366 5364 5358 5353 5345 5343 5341 5338 5346 5357 5390 5406 5422 5428 5434 5431 5441 5452 5456 5456 5462 5463 5466 5479 5485 5491 5504 5517 5525 5537 5547 5560 5566 5566 5568 5577 5588 5592 5598 5601 5603 5609 5617 5621 5620 5619 5617 5619 5622 5620 5614 5607 5600
5373 5371 5367 5362 5357 5349 5342 5334 5343 5362 5393 5410 5416 5421 5427 5430 5434 5441 5450 5454 5454 5461 5462 5467 5474 5494 5505 5517 5527 5533 5539 5547 5550 5560 5566 5561 5567 5577 5584 5591 5595 5600 5607 5611 5612 5614 5613 5615 5619 5620 5618 5611 5607 5599
5372 5372 5370 5365 5360 5351 5352 5352 5370 5390 5406 5419 5423 5426 5431 5430 5430 5437 5445 5449 5451 5454 5464 5479 5488 5498 5508 5517 5524 5528 5535 5545 5550 5554 5561 5562 5566 5570 5575 5581 5588 5593 5599 5600 5603 5602 5609 5613 5616 5616 5612 5608 5602 5597
5372 5378 5371 5369 5366 5369 5369 5382 5389 5398 5404 5417 5425 5426 5428 5432 5432 5435 5439 5446 5452 5474 5481 5488 5493 5498 5504 5511 5517 5519 5524 5529 5533 5542 5552 5557 5560 5564 5571 5576 5583 5587 5591 5593 5596 5598 5598 5602 5604 5605 5601 5598 5594 5591
5380 5376 5372 5367 5372 5370 5373 5382 5403 5400 5395 5412 5418 5424 5426 5424 5425 5431 5437 5446 5467 5478 5483 5486 5490 5496 5501 5506 5514 5522 5522 5522 5525 5530 5526 5538 5552 5560 5571 5573 5576 5579 5583 5585 5590 5590 5592 5594 5595 5593 5587 5582 5582 5582
5375 5380 5379 5381 5382 5380 5371 5381 5394 5396 5391 5391 5406 5414 5421 5425 5432 5433 5435 5454 5468 5474 5478 5483 5485 5491 5500 5501 5502 5507 5512 5515 5521 5529 5538 5545 5554 5560 5568 5569 5571 5573 5576 5580 5581 5582 5583 5578 5577 5576 5575 5575 5571 5565
5386 5380 5381 5381 5386 5378 5375 5380 5394 5401 5391 5397 5396 5403 5407 5401 5407 5415 5430 5454 5465 5471 5477 5481 5481 5485 5492 5487 5491 5501 5504 5511 5516 5528 5537 5545 5547 5553 5558 5561 5565 5565 5569 5572 5573 5571 5570 5569 5566 5568 5560 5555 5551 5551
5386 5373 5384 5380 5384 5388 5388 5386 5394 5399 5395 5402 5404 5400 5395 5390 5400 5411 5439 5454 5460 5469 5472 5471 5472 5478 5486 5493 5489 5491 5495 5501 5515 5521 5527 5535 5542 5541 5547 5551 5555 5555 5558 5562 5555 5553 5552 5555 5553 5551 5547 5545 5546 5541
5377 5369 5386 5385 5380 5391 5393 5392 5390 5395 5408 5404 5409 5419 5404 5397 5412 5439 5454 5441 5449 5463 5465 5467 5467 5467 5468 5469 5472 5482 5490 5494 5503 5513 5521 5528 5531 5538 5547 5548 5548 5546 5553 5553 5547 5546 5546 5544 5543 5541 5538 5535 5534 5532
5377 5368 5369 5373 5382 5384 5381 5382 5385 5389 5391 5397 5407 5399 5400 5419 5436 5429 5423 5423 5436 5444 5453 5460 5462 5461 5458 5455 5465 5473 5478 5485 5499 5506 5510 5517 5525 5535 5540 5543 5545 5545 5543 5543 5542 5544 5543 5538 5535 5533 5528 5526 5525 5525
5368 5373 5375 5368 5370 5374 5378 5380 5385 5397 5405 5399 5404 5418 5428 5430 5416 5400 5409 5413 5421 5434 5439 5440 5449 5453 5453 5453 5450 5450 5458 5473 5486 5492 5494 5500 5505 5512 5519 5526 5530 5528 5532 5530 5532 5534 5532 5530 5526 5523 5520 5518 5515 5513
5367 5368 5373 5370 5369 5371 5371 5375 5384 5388 5387 5398 5412 5407 5386 5374 5369 5380 5393 5402 5418 5427 5432 5438 5438 5438 5438 5434 5442 5445 5459 5474 5485 5484 5488 5493 5497 5498 5503 5509 5512 5515 5516 5516 5515 5518 5518 5516 5514 5512 5509 5506 5503 5498
5364 5368 5374 5367 5366 5367 5368 5368 5379 5383 5384 5378 5375 5370 5365 5359 5358 5365 5378 5394 5406 5410 5413 5420 5424 5431 5431 5434 5433 5435 5440 5450 5463 5476 5484 5486 5485 5483 5487 5490 5495 5500 5503 5505 5503 5501 5500 5500 5498 5497 5494 5490 5487 5485
5360 5370 5370 5368 5366 5363 5363 5363 5367 5372 5373 5371 5366 5369 5370 5367 5363 5360 5364 5377 5391 5399 5407 5411 5410 5411 5416 5419 5429 5436 5437 5440 5451 5459 5464 5466 5469 5473 5478 5482 5486 5488 5491 5492 5491 5490 5488 5487 5485 5482 5480 5478 5475 5472
5359 5365 5373 5368 5363 5361 5366 5370 5372 5373 5370 5369 5367 5373 5371 5367 5361 5355 5354 5361 5370 5382 5390 5396 5402 5402 5406 5411 5417 5421 5426 5433 5442 5449 5455 5459 5461 5463 5465 5468 5471 5475 5478 5479 5477 5475 5474 5472 5470 5469 5467 5465 5463 5462
5356 5361 5368 5369 5368 5369 5368 5375 5376 5374 5374 5372 5363 5361 5359 5358 5346 5340 5344 5350 5358 5366 5376 5386 5391 5395 5401 5407 5413 5418 5423 5428 5433 5439 5443 5447 5450 5453 5456 5458 5460 5462 5462 5461 5460 5460 5460 5458 5457 5455 5454 5453 5451 5450